Yiewsley, United Kingdom

3:47 AM BST on September 20, 2017 (GMT +0100)
Yiewsley

Weather History for 03772 - April, 2014

Change the Weather History Date:

Sunday, April 20, 2014

  Actual Average Record
Temperature  
Mean Temperature 50 °F -  
Max Temperature 57 °F 60 °F - ()
Min Temperature 44 °F 45 °F - ()
Degree Days  
Heating Degree Days 14    
Moisture  
Dew Point 46 °F    
Average Humidity 84    
Maximum Humidity 94    
Minimum Humidity 68    
Precipitation  
Precipitation 0.35 in - - ()
Sea Level Pressure  
Sea Level Pressure 29.74 in    
Wind  
Wind Speed 7 mph ()    
Max Wind Speed 15 mph    
Max Gust Speed 24 mph    
Visibility 4.3 miles    
Events Rain    
T = Trace of Precipitation, MM = Missing Value Source: Averaged Metar Reports

Daily Weather History Graph

Daily Weather History Graph

Search for Another Location

Airport or City:

Trip Planner

Search our weather history database for the weather conditions in past years. The results will help you decide how hot, cold, wet, or windy it might be!

Date:

Astronomy

Apr. 20, 2014 Rise Set
Actual Time 5:55 AM BST 8:06 PM BST
Civil Twilight 5:19 AM BST 8:42 PM BST
Nautical Twilight 4:34 AM BST 9:28 PM BST
Astronomical Twilight 3:42 AM BST 10:21 PM BST
Moon 12:48 AM BST 9:45 AM BST
Length of Visible Light 15h 23m
Length of Day
14h 10m
Waning Gibbous, 71% of the Moon is Illuminated
Apr 20
Waning Gibbous
Apr 22
Last Quarter
Apr 29
New
May 7
First Quarter
May 14
Full

Hourly Weather History & Observations

Time (BST) Temp. Windchill Dew Point Humidity Pressure Visibility Wind Dir Wind Speed Gust Speed Precip Events Conditions
12:00 AM 45 °F - 38 °F 68% 29.98 in 11 mi NNE 5.8 mph - -  
12:20 AM 44.6 °F 40.7 °F 39.2 °F 81% 29.98 in - NE 6.9 mph - N/A   Clear
12:50 AM 44.6 °F 41.4 °F 39.2 °F 81% 29.95 in 6.2 mi NE 5.8 mph - N/A   Partly Cloudy
1:00 AM 45 °F - 39 °F 71% 29.96 in 10 mi NNE 6.9 mph - -   Scattered Clouds
1:20 AM 44.6 °F 40.7 °F 41.0 °F 87% 29.95 in 6.2 mi NNE 6.9 mph - N/A   Overcast
1:50 AM 44.6 °F 41.4 °F 41.0 °F 87% 29.92 in 6.2 mi NNE 5.8 mph - N/A   Mostly Cloudy
2:00 AM 44 °F - 39 °F 76% 29.92 in 9 mi North 5.8 mph - -   Mostly Cloudy
2:20 AM 44.6 °F 41.4 °F 41.0 °F 87% 29.92 in 6.2 mi NNE 5.8 mph - N/A   Overcast
2:50 AM 44.6 °F 42.2 °F 41.0 °F 87% 29.89 in 5.0 mi NNE 4.6 mph - N/A   Mostly Cloudy
3:00 AM 45 °F - 40 °F 78% 29.89 in 7 mi NNE 4.6 mph - -   Overcast
3:20 AM 46.4 °F 44.3 °F 42.8 °F 87% 29.86 in 5.0 mi Variable 4.6 mph - N/A   Mostly Cloudy
3:50 AM 46.4 °F 44.3 °F 42.8 °F 87% 29.86 in 5.0 mi NE 4.6 mph - N/A   Mostly Cloudy
4:00 AM 46 °F - 42 °F 81% 29.86 in 6 mi NNE 5.8 mph - - Rain Rain
4:20 AM 48.2 °F - 42.8 °F 82% 29.86 in 5.0 mi NE 6.9 mph - N/A   Mostly Cloudy
4:50 AM 48.2 °F - 42.8 °F 82% 29.83 in 4.3 mi NE 6.9 mph - N/A   Mostly Cloudy
5:00 AM 47 °F - 43 °F 80% 29.83 in 6 mi NNE 8.1 mph - -   Light Haze
5:20 AM 48.2 °F - 44.6 °F 87% 29.80 in 4.3 mi NE 9.2 mph - N/A   Mostly Cloudy
5:50 AM 48.2 °F - 44.6 °F 87% 29.80 in 3.7 mi NE 8.1 mph - N/A   Mostly Cloudy
6:00 AM 48 °F - 43 °F 78% 29.81 in 4 mi NE 8.1 mph - - Rain Rain
6:20 AM 48.2 °F - 44.6 °F 87% 29.80 in 4.3 mi NNE 6.9 mph - N/A   Mostly Cloudy
6:50 AM 48.2 °F - 44.6 °F 87% 29.77 in 3.7 mi NNE 8.1 mph - N/A   Mostly Cloudy
7:00 AM 48 °F - 44 °F 79% 29.79 in 4 mi NNE 8.1 mph - -   Light Haze
7:20 AM 48.2 °F - 44.6 °F 87% 29.77 in 3.7 mi NE 9.2 mph - N/A   Mostly Cloudy
7:50 AM 50.0 °F - 44.6 °F 82% 29.77 in 3.7 mi NE 9.2 mph - N/A   Mostly Cloudy
8:00 AM 49 °F - 44 °F 78% 29.77 in 4 mi NE 12.7 mph - -   Light Haze
8:20 AM 50.0 °F - 44.6 °F 82% 29.77 in 3.7 mi NE 9.2 mph - N/A   Mostly Cloudy
8:50 AM 50.0 °F - 46.4 °F 87% 29.74 in 3.7 mi NE 9.2 mph - N/A   Mostly Cloudy
9:00 AM 51 °F - 45 °F 72% 29.75 in 4 mi NNE 10.4 mph - -   Light Haze
9:20 AM 51.8 °F - 46.4 °F 82% 29.74 in 3.7 mi NE 10.4 mph - N/A   Mostly Cloudy
9:50 AM 51.8 °F - 46.4 °F 82% 29.74 in 3.7 mi NE 10.4 mph - N/A   Mostly Cloudy
10:00 AM 52 °F - 46 °F 72% 29.74 in 3 mi NE 12.7 mph - -   Light Haze
10:20 AM 51.8 °F - 48.2 °F 88% 29.71 in 3.7 mi NE 9.2 mph - N/A Rain Light Rain
10:50 AM 53.6 °F - 48.2 °F 82% 29.71 in 3.7 mi NE 9.2 mph - N/A Rain Light Rain
11:00 AM 53 °F - 47 °F 75% 29.72 in 3 mi NNE 10.4 mph - - Rain Light Rain Showers
11:20 AM 53.6 °F - 50.0 °F 88% 29.68 in - NE 10.4 mph - N/A Rain Light Rain
11:50 AM 53.6 °F - 51.8 °F 94% 29.68 in - NE 9.2 mph - N/A Rain Light Rain
12:00 PM 55 °F - 51 °F 84% 29.68 in 2 mi NE 10.4 mph - - Rain Light Drizzle
12:20 PM 55.4 °F - 51.8 °F 88% 29.68 in - ENE 9.2 mph - N/A   Haze
12:50 PM 57.2 °F - 51.8 °F 82% 29.65 in 3.1 mi ENE 11.5 mph - N/A Rain Light Rain
1:00 PM 57 °F - 52 °F 76% 29.66 in 3 mi NE 10.4 mph - - Rain Light Rain Showers
1:20 PM 55.4 °F - 51.8 °F 88% 29.65 in - ENE 12.7 mph 24.2 mph N/A Rain Light Rain
1:50 PM 55.4 °F - 51.8 °F 88% 29.65 in 3.1 mi ENE 12.7 mph - N/A Rain Light Rain
2:00 PM 56 °F - 52 °F 82% 29.65 in 3 mi NE 10.4 mph - - Rain Rain
2:20 PM 55.4 °F - 51.8 °F 88% 29.62 in 3.1 mi ENE 12.7 mph - N/A Rain Light Rain
2:50 PM 55.4 °F - 51.8 °F 88% 29.62 in - East 11.5 mph - N/A Rain Light Rain
3:00 PM 55 °F - 51 °F 81% 29.63 in 2 mi ENE 11.5 mph - - Rain Rain
3:20 PM 55.4 °F - 51.8 °F 88% 29.62 in - ENE 12.7 mph - N/A Rain Light Rain
3:50 PM 53.6 °F - 50.0 °F 88% 29.62 in - ENE 15.0 mph - N/A Rain Light Rain
4:00 PM 54 °F - 50 °F 80% 29.63 in 3 mi ENE 15.0 mph - - Rain Light Rain
4:20 PM 53.6 °F - 50.0 °F 88% 29.62 in - ENE 11.5 mph - N/A Rain Rain
4:50 PM 51.8 °F - 50.0 °F 94% 29.62 in 1.4 mi East 10.4 mph - N/A Rain Light Rain
5:00 PM 53 °F - 50 °F 87% 29.62 in 1 mi East 10.4 mph - - Rain Rain
5:20 PM 51.8 °F - 48.2 °F 88% 29.62 in 3.1 mi ESE 9.2 mph - N/A Rain Light Rain
5:50 PM 51.8 °F - 48.2 °F 88% 29.62 in 4.3 mi ESE 5.8 mph - N/A   Scattered Clouds
6:00 PM 51 °F - 48 °F 86% 29.63 in 4 mi ESE 8.1 mph - - Rain Rain
6:20 PM 51.8 °F - 48.2 °F 88% 29.62 in 5.0 mi ESE 8.1 mph - N/A   Unknown
6:50 PM 51.8 °F - 46.4 °F 82% 29.65 in 5.0 mi ESE 8.1 mph - N/A   Unknown
7:00 PM 51 °F - 46 °F 77% 29.65 in 6 mi ESE 10.4 mph - -   Mostly Cloudy
7:20 PM 51.8 °F - 46.4 °F 82% 29.65 in 5.0 mi East 6.9 mph - N/A   Unknown
7:50 PM 50.0 °F - 46.4 °F 87% 29.65 in 5.0 mi East 3.5 mph - N/A   Unknown
8:00 PM 50 °F - 45 °F 78% 29.66 in 4 mi East 4.6 mph - -   Light Haze
8:20 PM 48.2 °F - 44.6 °F 87% 29.65 in 5.0 mi ENE 5.8 mph - N/A   Unknown
8:50 PM 50.0 °F - 46.4 °F 87% 29.65 in 4.3 mi ENE 6.9 mph - N/A   Unknown
9:00 PM 49 °F - 46 °F 86% 29.67 in 3 mi ENE 6.9 mph - -   Light Haze
9:20 PM 50.0 °F - 46.4 °F 87% 29.68 in 4.3 mi ENE 5.8 mph - N/A   Unknown
9:50 PM 48.2 °F - 46.4 °F 93% 29.68 in 3.7 mi ENE 5.8 mph - N/A   Unknown
10:00 PM 49 °F - 45 °F 82% 29.68 in 4 mi NE 5.8 mph - -   Light Haze
10:20 PM 50.0 °F - 46.4 °F 87% 29.68 in 3.7 mi ENE 5.8 mph - N/A   Unknown
10:50 PM 48.2 °F - 44.6 °F 87% 29.68 in 3.1 mi ENE 4.6 mph - N/A   Haze
11:00 PM 48 °F - 45 °F 86% 29.70 in 3 mi NE 4.6 mph - -   Light Haze
11:20 PM 46.4 °F 42.4 °F 44.6 °F 93% 29.68 in 2.5 mi ENE 8.1 mph - N/A   Haze
11:50 PM 48.2 °F - 44.6 °F 87% 29.68 in 3.1 mi ENE 5.8 mph - N/A   Haze